Home   Weather   Belfast   Past weeks
Flag for United Kingdom

Past Weather in Belfast, Northern Ireland, United Kingdom — Yesterday and Last 2 Weeks

Now
48 °F

Light rain. Overcast.


Feels Like: 43 °F
Forecast: N/A
Wind: 13 mph from South

Location: Belfast / Harbour

Current Time: Dec 12, 2018 at 4:54:50 pm

Latest Report: Dec 12, 2018 at 4:20 pm


Visibility: 4 mi

Pressure: 29.89 "Hg

Humidity: 94%

Dew Point: 46 °F

Location of BelfastLocation

Past Weather in Belfast — Graph

°F

Belfast Temperature Yesterday

Maximum temperature yesterday: 52 °F (at 9:20 am)
Minimum temperature yesterday: 46 °F (at 12:20 am)
Average temperature yesterday: 50 °F

High & Low Weather Summary for the Past Weeks

 TemperatureHumidityPressure
High57 °F (Nov 28, 2:50 pm)100% (Nov 28, 5:50 am)30.30 "Hg (Nov 28, 5:50 am)
Low34 °F (Dec 4, 7:50 pm)66% (Dec 7, 4:20 am)28.88 "Hg (Nov 28, 1:20 pm)
Average46 °F89%29.60 "Hg
* Reported Nov 27 3:20 pm — Dec 12 3:50 pm, Belfast. Weather by CustomWeather, © 2018

Note: Actual official high and low records may vary slightly from our data, if they occured in-between our weather recording intervals... More about our weather records

Advertising

Belfast Weather History for the Previous 24 Hours

Scroll right to see more
 ConditionsComfort  
Time TempWeatherWind HumidityBarometerVisibility
3:50 pm
Wed, Dec 12
50 °FLight rain. Mostly cloudy.14 mph88%29.89 "HgN/A
3:20 pm48 °FLight rain. Mostly cloudy.12 mph94%29.89 "HgN/A
2:50 pm48 °FLight rain. Partly sunny.12 mph94%29.89 "Hg4 mi
2:20 pm48 °FLight rain. Mostly cloudy.14 mph94%29.89 "HgN/A
1:50 pm50 °FMostly cloudy.13 mph88%29.92 "HgN/A
1:20 pm50 °FMostly cloudy.14 mph88%29.92 "HgN/A
12:50 pm50 °FMostly cloudy.13 mph88%29.92 "HgN/A
12:20 pm48 °FDrizzle. Mostly cloudy.12 mph94%29.95 "Hg3 mi
11:50 am48 °FDrizzle. Broken clouds.13 mph100%29.95 "Hg3 mi
11:20 am50 °FLight rain. Mostly cloudy.14 mph88%29.98 "HgN/A
10:50 am50 °FLight rain. Overcast.13 mph94%29.98 "Hg6 mi
10:20 am50 °FMostly cloudy.12 mph94%29.98 "HgN/A
9:50 am50 °FDrizzle. Mostly cloudy.13 mph94%29.98 "Hg2 mi
9:20 am50 °FLight rain. Mostly cloudy.12 mph94%29.98 "Hg6 mi
8:50 am50 °FDrizzle. Broken clouds.10 mph94%29.98 "Hg3 mi
8:20 am50 °FPartly cloudy.12 mph94%29.95 "Hg6 mi
7:50 am50 °FPartly cloudy.10 mph94%29.98 "HgN/A
7:20 am50 °FPartly cloudy.10 mph94%29.98 "HgN/A
6:50 am50 °FPartly cloudy.7 mph94%29.98 "Hg6 mi
5:50 am50 °FLight rain. Partly cloudy.8 mph94%29.98 "HgN/A
5:20 am50 °FLight rain. Passing clouds.8 mph94%29.98 "Hg4 mi
4:50 am50 °FLight rain. Mostly cloudy.7 mph94%29.98 "Hg4 mi
4:20 am48 °FLight rain. Mostly cloudy.9 mph100%29.98 "Hg3 mi
3:50 am48 °FDrizzle. Mostly cloudy.10 mph100%29.98 "Hg2 mi
3:20 am48 °FPartly cloudy.10 mph94%29.98 "Hg2 mi
2:50 am48 °FPassing clouds.13 mph94%29.98 "Hg3 mi
2:20 am48 °FLight rain. Overcast.9 mph94%29.98 "Hg4 mi
1:50 am48 °FLight rain. Mostly cloudy.13 mph94%29.98 "Hg4 mi
1:20 am48 °FDrizzle. Overcast.14 mph94%29.98 "Hg3 mi
12:50 am48 °FPartly cloudy.16 mph94%29.98 "Hg2 mi
12:20 am48 °FPartly cloudy.14 mph94%29.98 "Hg2 mi
11:50 pm
Tue, Dec 11
48 °FDrizzle. Mostly cloudy.15 mph94%29.98 "Hg2 mi
11:20 pm48 °FDrizzle. Mostly cloudy.13 mph94%29.98 "Hg2 mi
10:50 pm50 °FLight rain. Mostly cloudy.13 mph88%29.98 "HgN/A
10:20 pm50 °FLight rain. Partly cloudy.15 mph88%29.98 "HgN/A
9:50 pm50 °FMostly cloudy.15 mph94%29.98 "HgN/A
9:20 pm50 °FPartly cloudy.16 mph88%29.98 "HgN/A
8:50 pm50 °FMostly cloudy.14 mph88%29.98 "HgN/A
8:20 pm50 °FOvercast.14 mph94%29.98 "HgN/A
7:50 pm50 °FLight rain. Passing clouds.12 mph94%29.98 "Hg6 mi
7:20 pm50 °FPartly cloudy.12 mph94%29.98 "Hg2 mi
6:50 pm50 °FPartly cloudy.10 mph94%29.98 "Hg5 mi
5:50 pm50 °FLight rain. Passing clouds.13 mph94%29.98 "HgN/A
5:20 pm50 °FDrizzle. Overcast.12 mph94%29.98 "Hg4 mi
4:50 pm50 °FLight rain. Mostly cloudy.13 mph88%30.01 "Hg4 mi
4:20 pm50 °FMostly cloudy.13 mph88%30.01 "HgN/A
Weather by CustomWeather, © 2018

See weather overview